| time (UTC) | temp F | wind direction | speed MPH | gust MPH | rain 1hr in | rain 24hr in | rain mn in | humidity % | barometer mb |
| 20260510175057 | 62 | 231 | 4.0 | 10.0 | 0.00 | 0.00 | 0.00 | 71 | 1019.2 |
| 20260510174600 | 61 | 311 | 2.0 | 7.0 | 0.00 | 0.00 | 0.00 | 70 | 1019.2 |
| 20260510174555 | 62 | 211 | 3.0 | 10.0 | 0.00 | 0.00 | 0.00 | 70 | 1019.3 |
| 20260510173555 | 61 | 272 | 3.0 | 8.0 | 0.00 | 0.00 | 0.00 | 71 | 1019.3 |
| 20260510173059 | 61 | 263 | 2.0 | 8.0 | 0.00 | 0.00 | 0.00 | 70 | 1019.3 |
| 20260510172559 | 61 | 253 | 3.0 | 10.0 | 0.00 | 0.00 | 0.00 | 72 | 1019.3 |
| 20260510172555 | 61 | 242 | 3.0 | 10.0 | 0.00 | 0.00 | 0.00 | 73 | 1019.2 |
| 20260510171558 | 60 | 211 | 3.0 | 10.0 | 0.00 | 0.00 | 0.00 | 73 | 1019.2 |
| 20260510171554 | 60 | 252 | 4.0 | 10.0 | 0.00 | 0.00 | 0.00 | 73 | 1019.2 |
| 20260510170552 | 60 | 0 | 3.0 | 7.0 | 0.00 | 0.00 | 0.00 | 74 | 1019.3 |
| 20260510170052 | 59 | 236 | 3.0 | 7.0 | 0.00 | 0.00 | 0.00 | 76 | 1019.3 |
| 20260510165551 | 59 | 227 | 2.0 | 7.0 | 0.00 | 0.00 | 0.00 | 75 | 1019.3 |
| 20260510165050 | 59 | 279 | 2.0 | 4.0 | 0.00 | 0.00 | 0.00 | 76 | 1019.3 |
| 20260510164551 | 59 | 236 | 2.0 | 8.0 | 0.00 | 0.00 | 0.00 | 78 | 1019.1 |
| 20260510164050 | 58 | 288 | 3.0 | 8.0 | 0.00 | 0.00 | 0.00 | 76 | 1019.1 |
| 20260510163550 | 58 | 291 | 4.0 | 8.0 | 0.00 | 0.00 | 0.00 | 76 | 1019.1 |
| 20260510163050 | 58 | 219 | 3.0 | 8.0 | 0.00 | 0.00 | 0.00 | 75 | 1019.0 |
| 20260510162548 | 58 | 325 | 2.0 | 6.0 | 0.00 | 0.00 | 0.00 | 76 | 1019.1 |
| 20260510162053 | 58 | 253 | 2.0 | 6.0 | 0.00 | 0.00 | 0.00 | 77 | 1019.0 |
| 20260510162049 | 58 | 265 | 2.0 | 6.0 | 0.00 | 0.00 | 0.00 | 78 | 1019.1 |
| 20260510161047 | 58 | 309 | 2.0 | 6.0 | 0.00 | 0.00 | 0.00 | 77 | 1019.0 |
| 20260510160547 | 58 | 304 | 2.0 | 8.0 | 0.00 | 0.00 | 0.00 | 77 | 1019.0 |
| 20260510160048 | 58 | 261 | 2.0 | 8.0 | 0.00 | 0.00 | 0.00 | 76 | 1019.0 |
| 20260510155549 | 58 | 251 | 2.0 | 4.0 | 0.00 | 0.00 | 0.00 | 79 | 1019.0 |
| 20260510155048 | 57 | 299 | 2.0 | 5.0 | 0.00 | 0.00 | 0.00 | 79 | 1019.0 |
| 20260510154555 | 56 | 257 | 2.0 | 8.0 | 0.00 | 0.00 | 0.00 | 79 | 1018.8 |
| 20260510154548 | 56 | 269 | 3.0 | 8.0 | 0.00 | 0.00 | 0.00 | 79 | 1019.0 |
| 20260510154048 | 56 | 267 | 2.0 | 8.0 | 0.00 | 0.00 | 0.00 | 79 | 1018.8 |
| 20260510153053 | 56 | 233 | 2.0 | 5.0 | 0.00 | 0.00 | 0.00 | 81 | 1018.7 |
| 20260510153049 | 56 | 275 | 2.0 | 8.0 | 0.00 | 0.00 | 0.00 | 80 | 1018.7 |
| 20260510152047 | 55 | 265 | 2.0 | 9.0 | 0.00 | 0.00 | 0.00 | 80 | 1018.8 |
| 20260510151547 | 55 | 252 | 3.0 | 9.0 | 0.00 | 0.00 | 0.00 | 81 | 1018.8 |
| 20260510151047 | 55 | 286 | 3.0 | 9.0 | 0.00 | 0.00 | 0.00 | 81 | 1018.8 |
| 20260510150547 | 55 | 263 | 3.0 | 9.0 | 0.00 | 0.00 | 0.00 | 81 | 1018.8 |
| 20260510150053 | 55 | 321 | 2.0 | 5.0 | 0.00 | 0.00 | 0.00 | 83 | 1018.6 |
| 20260510150049 | 55 | 250 | 3.0 | 7.0 | 0.00 | 0.00 | 0.00 | 82 | 1018.7 |
| 20260510145701 | 55 | 254 | 2.0 | 7.0 | 0.00 | 0.00 | 0.00 | 83 | 1018.5 |
| 20260510144547 | 54 | 261 | 2.0 | 7.0 | 0.00 | 0.00 | 0.00 | 83 | 1018.5 |
| 20260510144047 | 54 | 160 | 2.0 | 7.0 | 0.00 | 0.00 | 0.00 | 84 | 1018.4 |
| 20260510143547 | 53 | 272 | 1.0 | 5.0 | 0.00 | 0.00 | 0.00 | 85 | 1018.4 |
| 20260510143053 | 53 | 258 | 2.0 | 5.0 | 0.00 | 0.00 | 0.00 | 84 | 1018.3 |
| 20260510143047 | 53 | 236 | 1.0 | 5.0 | 0.00 | 0.00 | 0.00 | 85 | 1018.4 |
| 20260510142047 | 53 | 252 | 2.0 | 4.0 | 0.00 | 0.00 | 0.00 | 84 | 1018.4 |
| 20260510141546 | 53 | 254 | 2.0 | 5.0 | 0.00 | 0.00 | 0.00 | 85 | 1018.3 |
| 20260510141045 | 53 | 313 | 2.0 | 7.0 | 0.00 | 0.00 | 0.00 | 85 | 1018.1 |
| 20260510140550 | 52 | 250 | 1.0 | 7.0 | 0.00 | 0.00 | 0.00 | 85 | 1018.5 |
| 20260510140545 | 53 | 259 | 2.0 | 7.0 | 0.00 | 0.00 | 0.00 | 85 | 1018.2 |
| 20260510140149 | 52 | 277 | 2.0 | 7.0 | 0.00 | 0.00 | 0.00 | 86 | 1018.2 |
| 20260510135045 | 52 | 265 | 1.0 | 3.0 | 0.00 | 0.00 | 0.00 | 86 | 1018.2 |
| 20260510135040 | 52 | 243 | 1.0 | 5.0 | 0.00 | 0.00 | 0.00 | 85 | 1017.9 |
| 20260510134643 | 52 | 234 | 1.0 | 3.0 | 0.00 | 0.00 | 0.00 | 85 | 1018.0 |
| 20260510133536 | 52 | 259 | 1.0 | 5.0 | 0.00 | 0.00 | 0.00 | 85 | 1017.9 |
| 20260510133037 | 52 | 254 | 1.0 | 4.0 | 0.00 | 0.00 | 0.00 | 85 | 1017.8 |
| 20260510132536 | 52 | 254 | 1.0 | 4.0 | 0.00 | 0.00 | 0.00 | 85 | 1017.8 |
| 20260510132035 | 52 | 279 | 1.0 | 4.0 | 0.00 | 0.00 | 0.00 | 85 | 1017.9 |
| 20260510131533 | 52 | 221 | 2.0 | 8.0 | 0.00 | 0.00 | 0.00 | 85 | 1017.8 |
| 20260510131033 | 52 | 219 | 3.0 | 8.0 | 0.00 | 0.00 | 0.00 | 85 | 1017.9 |
| 20260510130533 | 52 | 209 | 3.0 | 8.0 | 0.00 | 0.00 | 0.00 | 85 | 1018.0 |
| 20260510130033 | 52 | 227 | 2.0 | 8.0 | 0.00 | 0.00 | 0.00 | 85 | 1017.8 |
| 20260510125533 | 52 | 267 | 2.0 | 8.0 | 0.00 | 0.00 | 0.00 | 85 | 1017.6 |
| 20260510125034 | 52 | 246 | 2.0 | 8.0 | 0.00 | 0.00 | 0.00 | 85 | 1017.6 |
| 20260510124533 | 52 | 220 | 2.0 | 5.0 | 0.00 | 0.00 | 0.00 | 85 | 1017.5 |
| 20260510124038 | 52 | 281 | 2.0 | 7.0 | 0.00 | 0.00 | 0.00 | 85 | 1017.6 |
| 20260510124033 | 52 | 232 | 2.0 | 6.0 | 0.00 | 0.00 | 0.00 | 85 | 1017.6 |
| 20260510123037 | 52 | 252 | 1.0 | 6.0 | 0.00 | 0.00 | 0.00 | 86 | 1017.5 |
| 20260510123033 | 52 | 247 | 1.0 | 7.0 | 0.00 | 0.00 | 0.00 | 86 | 1017.6 |
| 20260510122033 | 52 | 269 | 2.0 | 6.0 | 0.00 | 0.00 | 0.00 | 86 | 1017.3 |
| 20260510121535 | 52 | 265 | 2.0 | 5.0 | 0.00 | 0.00 | 0.00 | 86 | 1017.7 |
| 20260510121032 | 53 | 294 | 2.0 | 7.0 | 0.00 | 0.00 | 0.00 | 86 | 1017.7 |
| 20260510120531 | 53 | 215 | 2.0 | 7.0 | 0.00 | 0.00 | 0.00 | 86 | 1017.8 |
| 20260510120033 | 53 | 250 | 2.0 | 9.0 | 0.00 | 0.00 | 0.00 | 86 | 1017.7 |
| 20260510115531 | 53 | 268 | 2.0 | 9.0 | 0.00 | 0.00 | 0.00 | 86 | 1017.6 |
| 20260510115035 | 53 | 232 | 2.0 | 9.0 | 0.00 | 0.00 | 0.00 | 87 | 1017.6 |
| 20260510115031 | 53 | 242 | 2.0 | 9.0 | 0.00 | 0.00 | 0.00 | 87 | 1017.7 |
| 20260510114031 | 53 | 256 | 3.0 | 9.0 | 0.00 | 0.00 | 0.00 | 87 | 1017.6 |
| 20260510113531 | 53 | 159 | 2.0 | 8.0 | 0.00 | 0.00 | 0.00 | 87 | 1017.6 |
| 20260510113036 | 53 | 283 | 2.0 | 8.0 | 0.00 | 0.00 | 0.00 | 87 | 1017.7 |
| 20260510113031 | 53 | 285 | 2.0 | 9.0 | 0.00 | 0.00 | 0.00 | 87 | 1017.7 |
| 20260510112634 | 53 | 282 | 2.0 | 9.0 | 0.00 | 0.00 | 0.00 | 87 | 1017.7 |
| 20260510111530 | 53 | 271 | 2.0 | 9.0 | 0.00 | 0.00 | 0.00 | 87 | 1017.7 |
| 20260510111031 | 53 | 232 | 2.0 | 9.0 | 0.00 | 0.00 | 0.00 | 87 | 1017.5 |
| 20260510110530 | 53 | 269 | 3.0 | 7.0 | 0.00 | 0.00 | 0.00 | 87 | 1017.6 |
| 20260510110029 | 53 | 261 | 3.0 | 10.0 | 0.00 | 0.00 | 0.00 | 87 | 1017.7 |
| 20260510105529 | 53 | 286 | 3.0 | 10.0 | 0.00 | 0.00 | 0.00 | 87 | 1017.7 |
| 20260510105029 | 53 | 244 | 3.0 | 10.0 | 0.00 | 0.00 | 0.00 | 87 | 1017.6 |
| 20260510104529 | 53 | 279 | 4.0 | 10.0 | 0.00 | 0.00 | 0.00 | 88 | 1017.8 |
| 20260510104029 | 52 | 254 | 3.0 | 12.0 | 0.00 | 0.00 | 0.00 | 88 | 1017.7 |
| 20260510103534 | 52 | 240 | 2.0 | 8.0 | 0.00 | 0.00 | 0.00 | 88 | 1017.3 |
| 20260510103529 | 52 | 246 | 3.0 | 12.0 | 0.00 | 0.00 | 0.00 | 88 | 1017.3 |
| 20260510102528 | 52 | 241 | 2.0 | 8.0 | 0.00 | 0.00 | 0.00 | 88 | 1017.3 |
| 20260510102027 | 52 | 253 | 2.0 | 12.0 | 0.00 | 0.00 | 0.00 | 87 | 1017.3 |
| 20260510101527 | 52 | 207 | 3.0 | 12.0 | 0.00 | 0.00 | 0.00 | 87 | 1017.3 |
| 20260510101027 | 52 | 222 | 3.0 | 8.0 | 0.00 | 0.00 | 0.00 | 88 | 1017.2 |
| 20260510100531 | 52 | 269 | 2.0 | 9.0 | 0.00 | 0.00 | 0.00 | 88 | 1017.2 |
| 20260510100527 | 52 | 222 | 2.0 | 9.0 | 0.00 | 0.00 | 0.00 | 88 | 1017.2 |
| 20260510095525 | 52 | 229 | 2.0 | 9.0 | 0.00 | 0.00 | 0.00 | 88 | 1017.1 |
| 20260510095025 | 52 | 279 | 2.0 | 9.0 | 0.00 | 0.00 | 0.00 | 88 | 1017.0 |
| 20260510094525 | 52 | 238 | 2.0 | 10.0 | 0.00 | 0.00 | 0.00 | 88 | 1017.0 |
| 20260510094025 | 52 | 239 | 3.0 | 10.0 | 0.00 | 0.00 | 0.00 | 88 | 1017.0 |
| 20260510093525 | 52 | 229 | 3.0 | 9.0 | 0.00 | 0.00 | 0.00 | 88 | 1017.0 |
| 20260510093025 | 52 | 288 | 3.0 | 10.0 | 0.00 | 0.00 | 0.00 | 88 | 1016.8 |
| 20260510092524 | 52 | 217 | 3.0 | 10.0 | 0.00 | 0.00 | 0.00 | 88 | 1016.7 |
| 20260510092024 | 52 | 286 | 3.0 | 9.0 | 0.00 | 0.00 | 0.00 | 87 | 1016.6 |
| 20260510091522 | 53 | 266 | 3.0 | 11.0 | 0.00 | 0.00 | 0.00 | 87 | 1016.7 |
| 20260510091022 | 53 | 265 | 3.0 | 11.0 | 0.00 | 0.00 | 0.00 | 87 | 1016.8 |
| 20260510090523 | 53 | 248 | 3.0 | 12.0 | 0.00 | 0.00 | 0.00 | 87 | 1016.8 |
| 20260510090024 | 53 | 225 | 3.0 | 12.0 | 0.00 | 0.00 | 0.00 | 87 | 1016.9 |
| 20260510085522 | 53 | 252 | 3.0 | 10.0 | 0.00 | 0.00 | 0.00 | 86 | 1017.2 |
| 20260510085021 | 53 | 269 | 3.0 | 10.0 | 0.00 | 0.00 | 0.00 | 86 | 1017.1 |
| 20260510084518 | 53 | 236 | 4.0 | 10.0 | 0.00 | 0.00 | 0.00 | 87 | 1017.1 |
| 20260510084019 | 53 | 225 | 3.0 | 9.0 | 0.00 | 0.00 | 0.00 | 87 | 1017.0 |
| 20260510083519 | 53 | 206 | 4.0 | 11.0 | 0.00 | 0.00 | 0.00 | 88 | 1017.0 |
| 20260510083018 | 53 | 281 | 4.0 | 11.0 | 0.00 | 0.00 | 0.00 | 88 | 1017.0 |
| 20260510082520 | 53 | 281 | 3.0 | 10.0 | 0.00 | 0.00 | 0.00 | 88 | 1017.0 |
| 20260510082019 | 53 | 281 | 3.0 | 10.0 | 0.00 | 0.00 | 0.00 | 88 | 1016.9 |
| 20260510081520 | 53 | 203 | 3.0 | 13.0 | 0.00 | 0.00 | 0.00 | 88 | 1016.7 |
| 20260510081019 | 53 | 204 | 4.0 | 13.0 | 0.00 | 0.00 | 0.00 | 89 | 1016.6 |
| 20260510080518 | 53 | 244 | 4.0 | 9.0 | 0.00 | 0.00 | 0.00 | 89 | 1016.7 |
| 20260510080018 | 53 | 215 | 4.0 | 9.0 | 0.00 | 0.00 | 0.00 | 89 | 1016.6 |
| 20260510075522 | 53 | 265 | 3.0 | 10.0 | 0.00 | 0.00 | 0.00 | 89 | 1016.6 |
| 20260510075518 | 53 | 241 | 3.0 | 9.0 | 0.00 | 0.00 | 0.00 | 89 | 1016.6 |
| 20260510074516 | 53 | 267 | 4.0 | 10.0 | 0.00 | 0.00 | 0.00 | 89 | 1016.6 |
| 20260510074016 | 53 | 266 | 4.0 | 10.0 | 0.00 | 0.00 | 0.00 | 89 | 1016.6 |
| 20260510073516 | 53 | 271 | 3.0 | 10.0 | 0.00 | 0.00 | 0.00 | 89 | 1016.4 |
| 20260510073016 | 53 | 200 | 3.0 | 10.0 | 0.00 | 0.00 | 0.00 | 88 | 1016.6 |
| 20260510072517 | 53 | 269 | 4.0 | 10.0 | 0.00 | 0.00 | 0.00 | 88 | 1016.4 |
| 20260510072016 | 53 | 212 | 3.0 | 9.0 | 0.00 | 0.00 | 0.00 | 88 | 1016.3 |
| 20260510071516 | 53 | 249 | 3.0 | 9.0 | 0.00 | 0.00 | 0.00 | 88 | 1016.4 |
| 20260510071017 | 54 | 301 | 3.0 | 9.0 | 0.00 | 0.00 | 0.00 | 88 | 1016.4 |
| 20260510070516 | 54 | 265 | 3.0 | 9.0 | 0.00 | 0.00 | 0.00 | 88 | 1016.6 |
| 20260510070018 | 54 | 227 | 3.0 | 9.0 | 0.00 | 0.00 | 0.00 | 88 | 1016.6 |
| 20260510065517 | 54 | 329 | 3.0 | 10.0 | 0.00 | 0.00 | 0.00 | 88 | 1016.6 |
| 20260510065017 | 54 | 285 | 4.0 | 10.0 | 0.00 | 0.00 | 0.00 | 88 | 1016.6 |
| 20260510064516 | 54 | 240 | 3.0 | 9.0 | 0.00 | 0.00 | 0.00 | 88 | 1016.6 |
| 20260510064017 | 54 | 234 | 3.0 | 12.0 | 0.00 | 0.00 | 0.00 | 88 | 1016.6 |
| 20260510063516 | 54 | 221 | 4.0 | 13.0 | 0.00 | 0.00 | 0.00 | 87 | 1016.6 |
| 20260510063020 | 54 | 189 | 3.0 | 11.0 | 0.00 | 0.00 | 0.00 | 87 | 1016.7 |
| 20260510063016 | 54 | 240 | 4.0 | 13.0 | 0.00 | 0.00 | 0.00 | 87 | 1016.6 |
| 20260510062015 | 54 | 276 | 3.0 | 11.0 | 0.00 | 0.00 | 0.00 | 87 | 1016.7 |
| 20260510061516 | 54 | 250 | 3.0 | 10.0 | 0.00 | 0.00 | 0.00 | 87 | 1016.6 |
| 20260510061015 | 55 | 248 | 2.0 | 10.0 | 0.00 | 0.00 | 0.00 | 86 | 1016.8 |
| 20260510060515 | 55 | 192 | 2.0 | 8.0 | 0.00 | 0.00 | 0.00 | 86 | 1016.6 |
| 20260510060016 | 55 | 225 | 3.0 | 9.0 | 0.00 | 0.00 | 0.00 | 85 | 1016.6 |
| 20260510055515 | 55 | 208 | 3.0 | 9.0 | 0.00 | 0.00 | 0.00 | 85 | 1016.6 |
| 20260510055013 | 55 | 268 | 3.0 | 9.0 | 0.00 | 0.00 | 0.00 | 85 | 1016.6 |
| 20260510054518 | 56 | 236 | 3.0 | 9.0 | 0.00 | 0.00 | 0.00 | 84 | 1016.3 |
| 20260510054514 | 55 | 269 | 2.0 | 8.0 | 0.00 | 0.00 | 0.00 | 84 | 1016.4 |
| 20260510054128 | 56 | 257 | 3.0 | 9.0 | 0.00 | 0.00 | 0.00 | 83 | 1016.3 |
| 20260510053013 | 56 | 255 | 2.0 | 7.0 | 0.00 | 0.00 | 0.00 | 82 | 1016.3 |
| 20260510052513 | 56 | 245 | 2.0 | 6.0 | 0.00 | 0.00 | 0.00 | 82 | 1016.2 |
| 20260510052013 | 57 | 238 | 2.0 | 6.0 | 0.00 | 0.00 | 0.00 | 81 | 1016.2 |
| 20260510051517 | 57 | 225 | 1.0 | 7.0 | 0.00 | 0.00 | 0.00 | 79 | 1016.1 |
| 20260510051513 | 57 | 270 | 1.0 | 7.0 | 0.00 | 0.00 | 0.00 | 80 | 1016.1 |
| 20260510050518 | 58 | 242 | 3.0 | 8.0 | 0.00 | 0.00 | 0.00 | 77 | 1015.8 |
| 20260510050513 | 58 | 268 | 2.0 | 7.0 | 0.00 | 0.00 | 0.00 | 79 | 1016.1 |
| 20260510050012 | 58 | 253 | 2.0 | 8.0 | 0.00 | 0.00 | 0.00 | 78 | 1016.0 |
| 20260510045011 | 59 | 250 | 3.0 | 9.0 | 0.00 | 0.00 | 0.00 | 76 | 1015.7 |
| 20260510044511 | 59 | 286 | 5.0 | 12.0 | 0.00 | 0.00 | 0.00 | 75 | 1015.7 |
| 20260510044011 | 60 | 234 | 6.0 | 13.0 | 0.00 | 0.00 | 0.00 | 74 | 1015.6 |
| 20260510043512 | 60 | 265 | 5.0 | 13.0 | 0.00 | 0.00 | 0.00 | 73 | 1015.6 |
| 20260510043010 | 60 | 240 | 4.0 | 12.0 | 0.00 | 0.00 | 0.00 | 73 | 1015.6 |
| 20260510042511 | 61 | 279 | 4.0 | 12.0 | 0.00 | 0.00 | 0.00 | 72 | 1015.6 |
| 20260510042012 | 61 | 209 | 4.0 | 11.0 | 0.00 | 0.00 | 0.00 | 71 | 1015.6 |
| 20260510041514 | 62 | 217 | 3.0 | 11.0 | 0.00 | 0.00 | 0.00 | 70 | 1015.4 |
| 20260510041509 | 62 | 222 | 4.0 | 11.0 | 0.00 | 0.00 | 0.00 | 70 | 1015.5 |
| 20260510040513 | 62 | 257 | 3.0 | 11.0 | 0.00 | 0.00 | 0.00 | 68 | 1015.2 |
| 20260510040508 | 62 | 215 | 3.0 | 11.0 | 0.00 | 0.00 | 0.00 | 69 | 1015.4 |
| 20260510035515 | 62 | 232 | 3.0 | 7.0 | 0.00 | 0.00 | 0.00 | 68 | 1015.0 |
| 20260510035511 | 62 | 223 | 3.0 | 11.0 | 0.00 | 0.00 | 0.00 | 68 | 1015.2 |
| 20260510034509 | 63 | 242 | 2.0 | 7.0 | 0.00 | 0.00 | 0.00 | 68 | 1015.0 |
| 20260510034015 | 63 | 244 | 2.0 | 9.0 | 0.00 | 0.00 | 0.00 | 67 | 1014.9 |
| 20260510034009 | 63 | 213 | 2.0 | 9.0 | 0.00 | 0.00 | 0.00 | 67 | 1014.9 |
| 20260510033007 | 63 | 263 | 2.0 | 8.0 | 0.00 | 0.00 | 0.00 | 67 | 1014.8 |
| 20260510032508 | 64 | 227 | 2.0 | 7.0 | 0.00 | 0.00 | 0.00 | 67 | 1014.8 |
| 20260510032006 | 64 | 248 | 2.0 | 7.0 | 0.00 | 0.00 | 0.00 | 66 | 1014.8 |
| 20260510031506 | 64 | 259 | 2.0 | 7.0 | 0.00 | 0.00 | 0.00 | 65 | 1014.8 |
| 20260510031007 | 64 | 270 | 1.0 | 7.0 | 0.00 | 0.00 | 0.00 | 65 | 1014.8 |
| 20260510030507 | 65 | 242 | 1.0 | 3.0 | 0.00 | 0.00 | 0.00 | 65 | 1014.8 |
| 20260510030006 | 65 | 241 | 1.0 | 3.0 | 0.00 | 0.00 | 0.00 | 65 | 1014.8 |
| 20260510025508 | 65 | 257 | 1.0 | 8.0 | 0.00 | 0.00 | 0.00 | 64 | 1014.7 |
| 20260510025007 | 65 | 198 | 1.0 | 8.0 | 0.00 | 0.00 | 0.00 | 63 | 1014.7 |
| 20260510024511 | 66 | 250 | 1.0 | 7.0 | 0.00 | 0.00 | 0.00 | 62 | 1014.7 |
| 20260510024506 | 66 | 240 | 2.0 | 6.0 | 0.00 | 0.00 | 0.00 | 63 | 1014.8 |
| 20260510023506 | 67 | 254 | 1.0 | 7.0 | 0.00 | 0.00 | 0.00 | 61 | 1014.7 |
| 20260510023007 | 67 | 271 | 2.0 | 7.0 | 0.00 | 0.00 | 0.00 | 61 | 1014.7 |
| 20260510022506 | 67 | 244 | 2.0 | 5.0 | 0.00 | 0.00 | 0.00 | 61 | 1014.6 |
| 20260510022007 | 68 | 252 | 2.0 | 6.0 | 0.00 | 0.00 | 0.00 | 60 | 1014.5 |
| 20260510021512 | 68 | 342 | 2.0 | 6.0 | 0.00 | 0.00 | 0.00 | 60 | 1014.6 |
| 20260510021508 | 68 | 260 | 2.0 | 6.0 | 0.00 | 0.00 | 0.00 | 60 | 1014.5 |
| 20260510021122 | 69 | 255 | 2.0 | 9.0 | 0.00 | 0.00 | 0.00 | 58 | 1014.6 |
| 20260510020006 | 69 | 243 | 1.0 | 9.0 | 0.00 | 0.00 | 0.00 | 59 | 1014.6 |
| 20260510015506 | 69 | 212 | 2.0 | 6.0 | 0.00 | 0.00 | 0.00 | 58 | 1014.5 |
| 20260510015012 | 70 | 242 | 2.0 | 7.0 | 0.00 | 0.00 | 0.00 | 53 | 1014.6 |
| 20260510015006 | 70 | 248 | 2.0 | 6.0 | 0.00 | 0.00 | 0.00 | 53 | 1014.6 |
| 20260510014006 | 71 | 243 | 2.0 | 7.0 | 0.00 | 0.00 | 0.00 | 53 | 1014.5 |
| 20260510013508 | 72 | 263 | 2.0 | 7.0 | 0.00 | 0.00 | 0.00 | 53 | 1014.6 |
| 20260510013007 | 73 | 226 | 2.0 | 8.0 | 0.00 | 0.00 | 0.00 | 51 | 1014.6 |
| 20260510012508 | 74 | 235 | 2.0 | 8.0 | 0.00 | 0.00 | 0.00 | 51 | 1014.6 |
| 20260510012006 | 75 | 242 | 2.0 | 8.0 | 0.00 | 0.00 | 0.00 | 50 | 1014.6 |
| 20260510011507 | 76 | 209 | 1.0 | 8.0 | 0.00 | 0.00 | 0.00 | 52 | 1014.6 |
| 20260510011006 | 77 | 248 | 1.0 | 5.0 | 0.00 | 0.00 | 0.00 | 52 | 1014.6 |
| 20260510010507 | 77 | 309 | 2.0 | 7.0 | 0.00 | 0.00 | 0.00 | 49 | 1014.6 |
| 20260510010006 | 77 | 292 | 2.0 | 7.0 | 0.00 | 0.00 | 0.00 | 49 | 1014.6 |
| 20260510005508 | 78 | 219 | 1.0 | 5.0 | 0.00 | 0.00 | 0.00 | 47 | 1014.6 |
| 20260510005006 | 78 | 319 | 1.0 | 2.0 | 0.00 | 0.00 | 0.00 | 45 | 1014.6 |
| 20260510004506 | 78 | 321 | 1.0 | 2.0 | 0.00 | 0.00 | 0.00 | 42 | 1014.6 |
| 20260510004006 | 78 | 222 | 1.0 | 3.0 | 0.00 | 0.00 | 0.00 | 42 | 1014.6 |
| 20260510003508 | 78 | 42 | 1.0 | 3.0 | 0.00 | 0.00 | 0.00 | 46 | 1014.5 |
| 20260510003006 | 78 | 355 | 1.0 | 3.0 | 0.00 | 0.00 | 0.00 | 45 | 1014.5 |
| 20260510002506 | 77 | 15 | 1.0 | 3.0 | 0.00 | 0.00 | 0.00 | 44 | 1014.5 |
| 20260510002008 | 77 | 5 | 1.0 | 3.0 | 0.00 | 0.00 | 0.00 | 47 | 1014.6 |
| 20260510001512 | 77 | 207 | 1.0 | 4.0 | 0.00 | 0.00 | 0.00 | 46 | 1014.8 |
| 20260510001507 | 77 | 5 | 1.0 | 4.0 | 0.00 | 0.00 | 0.00 | 43 | 1014.7 |
| 20260510001005 | 77 | 44 | 1.0 | 4.0 | 0.00 | 0.00 | 0.00 | 46 | 1014.8 |
| 20260510000005 | 77 | 5 | 1.0 | 4.0 | 0.00 | 0.00 | 0.00 | 47 | 1014.8 |
| 20260509235504 | 77 | 199 | 1.0 | 4.0 | 0.00 | 0.00 | 0.00 | 44 | 1014.8 |
| 20260509235010 | 76 | 11 | 2.0 | 4.0 | 0.00 | 0.00 | 0.00 | 45 | 1014.9 |
| 20260509235004 | 77 | 11 | 2.0 | 4.0 | 0.00 | 0.00 | 0.00 | 48 | 1014.9 |
| 20260509234617 | 77 | 13 | 2.0 | 4.0 | 0.00 | 0.00 | 0.00 | 48 | 1015.0 |
| 20260509233505 | 77 | 36 | 2.0 | 3.0 | 0.00 | 0.00 | 0.00 | 46 | 1015.0 |
| 20260509233004 | 78 | 332 | 2.0 | 4.0 | 0.00 | 0.00 | 0.00 | 43 | 1015.0 |
| 20260509232502 | 78 | 16 | 2.0 | 4.0 | 0.00 | 0.00 | 0.00 | 41 | 1015.0 |
| 20260509232000 | 78 | 11 | 1.0 | 3.0 | 0.00 | 0.00 | 0.00 | 42 | 1015.2 |
| 20260509231457 | 78 | 5 | 1.0 | 4.0 | 0.00 | 0.00 | 0.00 | 42 | 1015.2 |
| 20260509230956 | 78 | 78 | 1.0 | 4.0 | 0.00 | 0.00 | 0.00 | 44 | 1015.3 |
| 20260509230456 | 77 | 198 | 1.0 | 4.0 | 0.00 | 0.00 | 0.00 | 44 | 1015.4 |
| 20260509225958 | 77 | 309 | 1.0 | 4.0 | 0.00 | 0.00 | 0.00 | 44 | 1015.5 |
| 20260509225454 | 77 | 27 | 1.0 | 4.0 | 0.00 | 0.00 | 0.00 | 38 | 1015.5 |
| 20260509224954 | 76 | 332 | 2.0 | 3.0 | 0.00 | 0.00 | 0.00 | 44 | 1015.5 |
| 20260509224454 | 76 | 337 | 2.0 | 3.0 | 0.00 | 0.00 | 0.00 | 39 | 1015.6 |
| 20260509223954 | 76 | 318 | 2.0 | 3.0 | 0.00 | 0.00 | 0.00 | 43 | 1015.7 |
| 20260509223452 | 77 | 32 | 1.0 | 4.0 | 0.00 | 0.00 | 0.00 | 41 | 1015.7 |
| 20260509222952 | 76 | 19 | 1.0 | 4.0 | 0.00 | 0.00 | 0.00 | 44 | 1015.8 |
| 20260509222454 | 76 | 5 | 2.0 | 4.0 | 0.00 | 0.00 | 0.00 | 43 | 1015.8 |
| 20260509222108 | 76 | 290 | 1.0 | 4.0 | 0.00 | 0.00 | 0.00 | 46 | 1016.1 |
| 20260509221958 | 76 | 298 | 1.0 | 5.0 | 0.00 | 0.00 | 0.00 | 42 | 1016.0 |
| 20260509221953 | 76 | 305 | 2.0 | 5.0 | 0.00 | 0.00 | 0.00 | 45 | 1015.9 |
| 20260509220454 | 76 | 322 | 2.0 | 4.0 | 0.00 | 0.00 | 0.00 | 44 | 1016.2 |
| 20260509215953 | 76 | 54 | 1.0 | 4.0 | 0.00 | 0.00 | 0.00 | 46 | 1016.4 |
| 20260509215453 | 76 | 22 | 1.0 | 3.0 | 0.00 | 0.00 | 0.00 | 49 | 1016.4 |
| 20260509214956 | 75 | 332 | 2.0 | 7.0 | 0.00 | 0.00 | 0.00 | 42 | 1016.7 |
| 20260509214952 | 76 | 79 | 1.0 | 4.0 | 0.00 | 0.00 | 0.00 | 46 | 1016.6 |
| 20260509213950 | 75 | 10 | 2.0 | 7.0 | 0.00 | 0.00 | 0.00 | 43 | 1016.8 |
| 20260509213450 | 75 | 9 | 2.0 | 4.0 | 0.00 | 0.00 | 0.00 | 48 | 1016.9 |
| 20260509212951 | 75 | 5 | 1.0 | 4.0 | 0.00 | 0.00 | 0.00 | 44 | 1017.0 |
| 20260509212450 | 74 | 335 | 1.0 | 4.0 | 0.00 | 0.00 | 0.00 | 50 | 1017.1 |
| 20260509211950 | 74 | 268 | 1.0 | 2.0 | 0.00 | 0.00 | 0.00 | 44 | 1017.1 |
| 20260509211450 | 74 | 163 | 1.0 | 2.0 | 0.00 | 0.00 | 0.00 | 51 | 1017.2 |
| 20260509210950 | 73 | 78 | 1.0 | 4.0 | 0.00 | 0.00 | 0.00 | 47 | 1017.3 |
| 20260509210450 | 73 | 71 | 2.0 | 4.0 | 0.00 | 0.00 | 0.00 | 50 | 1017.4 |
| 20260509205950 | 73 | 338 | 2.0 | 4.0 | 0.00 | 0.00 | 0.00 | 55 | 1017.5 |
| 20260509205448 | 73 | 159 | 1.0 | 4.0 | 0.00 | 0.00 | 0.00 | 50 | 1017.5 |
| 20260509204948 | 73 | 239 | 1.0 | 4.0 | 0.00 | 0.00 | 0.00 | 50 | 1017.5 |
| 20260509204448 | 72 | 59 | 1.0 | 2.0 | 0.00 | 0.00 | 0.00 | 55 | 1017.6 |
| 20260509203948 | 72 | 58 | 1.0 | 3.0 | 0.00 | 0.00 | 0.00 | 48 | 1017.6 |
| 20260509203448 | 72 | 30 | 1.0 | 3.0 | 0.00 | 0.00 | 0.00 | 55 | 1017.7 |
| 20260509202952 | 71 | 244 | 1.0 | 4.0 | 0.00 | 0.00 | 0.00 | 52 | 1017.8 |
| 20260509202948 | 72 | 64 | 1.0 | 3.0 | 0.00 | 0.00 | 0.00 | 54 | 1017.8 |
| 20260509201948 | 71 | 142 | 0.0 | 4.0 | 0.00 | 0.00 | 0.00 | 50 | 1017.9 |
| 20260509201449 | 71 | 294 | 1.0 | 4.0 | 0.00 | 0.00 | 0.00 | 51 | 1017.9 |
| 20260509200948 | 71 | 5 | 1.0 | 4.0 | 0.00 | 0.00 | 0.00 | 53 | 1018.0 |
| 20260509200446 | 70 | 24 | 1.0 | 3.0 | 0.00 | 0.00 | 0.00 | 64 | 1018.2 |
| 20260509195946 | 69 | 231 | 1.0 | 4.0 | 0.00 | 0.00 | 0.00 | 56 | 1018.3 |
| 20260509195447 | 69 | 325 | 2.0 | 4.0 | 0.00 | 0.00 | 0.00 | 56 | 1018.4 |
| 20260509194946 | 69 | 347 | 2.0 | 4.0 | 0.00 | 0.00 | 0.00 | 59 | 1018.4 |
| 20260509194446 | 68 | 13 | 2.0 | 5.0 | 0.00 | 0.00 | 0.00 | 59 | 1018.4 |
| 20260509193947 | 68 | 16 | 2.0 | 5.0 | 0.00 | 0.00 | 0.00 | 58 | 1018.6 |
| 20260509193450 | 67 | 337 | 2.0 | 5.0 | 0.00 | 0.00 | 0.00 | 59 | 1018.6 |
| 20260509193445 | 67 | 291 | 2.0 | 5.0 | 0.00 | 0.00 | 0.00 | 61 | 1018.7 |
| 20260509192446 | 67 | 272 | 3.0 | 5.0 | 0.00 | 0.00 | 0.00 | 61 | 1018.8 |
| 20260509191944 | 67 | 326 | 2.0 | 5.0 | 0.00 | 0.00 | 0.00 | 63 | 1018.8 |
| 20260509191441 | 67 | 351 | 1.0 | 4.0 | 0.00 | 0.00 | 0.00 | 66 | 1018.9 |
| 20260509190947 | 66 | 200 | 1.0 | 2.0 | 0.00 | 0.00 | 0.00 | 66 | 1019.0 |
| 20260509190942 | 67 | 344 | 1.0 | 4.0 | 0.00 | 0.00 | 0.00 | 65 | 1018.9 |
| 20260509190442 | 67 | 301 | 1.0 | 3.0 | 0.00 | 0.00 | 0.00 | 64 | 1018.9 |
| 20260509185442 | 66 | 288 | 1.0 | 3.0 | 0.00 | 0.00 | 0.00 | 68 | 1019.1 |
| 20260509184942 | 65 | 290 | 1.0 | 5.0 | 0.00 | 0.00 | 0.00 | 67 | 1019.2 |
| 20260509184442 | 65 | 351 | 2.0 | 5.0 | 0.00 | 0.00 | 0.00 | 64 | 1019.2 |
| 20260509183942 | 65 | 5 | 2.0 | 5.0 | 0.00 | 0.00 | 0.00 | 67 | 1019.3 |
| 20260509183442 | 65 | 298 | 2.0 | 5.0 | 0.00 | 0.00 | 0.00 | 63 | 1019.2 |
| 20260509182939 | 66 | 325 | 1.0 | 3.0 | 0.00 | 0.00 | 0.00 | 66 | 1019.2 |
| 20260509182438 | 65 | 162 | 1.0 | 3.0 | 0.00 | 0.00 | 0.00 | 67 | 1019.3 |
| 20260509181938 | 64 | 304 | 1.0 | 5.0 | 0.00 | 0.00 | 0.00 | 67 | 1019.4 |
| 20260509181438 | 64 | 331 | 1.0 | 5.0 | 0.00 | 0.00 | 0.00 | 71 | 1019.4 |
| 20260509180938 | 64 | 246 | 1.0 | 3.0 | 0.00 | 0.00 | 0.00 | 71 | 1019.4 |
| 20260509180436 | 64 | 167 | 1.0 | 3.0 | 0.00 | 0.00 | 0.00 | 71 | 1019.4 |
| 20260509175933 | 64 | 35 | 1.0 | 3.0 | 0.00 | 0.00 | 0.00 | 70 | 1019.5 |
| 20260509175434 | 64 | 12 | 1.0 | 3.0 | 0.00 | 0.00 | 0.00 | 70 | 1019.6 |